[Iaude] MPEC V197: 2023 VT6 [a=1.87,e=0.31,i=15.0,H=21.7]
    mpec at marsden.cfa.harvard.edu 
    mpec at marsden.cfa.harvard.edu
       
    Sat Nov 11 08:58:15 EST 2023
    
    
  
M.P.E.C. 2023-V197                            Issued 2023 November 11, 13:56 UT
     The Minor Planet Electronic Circulars contain information on unusual
         minor planets, routine data on comets and natural satellites,
         and occasional editorial announcements.  They are published
    on behalf of Division F of the International Astronomical Union by the
          Minor Planet Center, Smithsonian Astrophysical Observatory,
                          Cambridge, MA 02138, U.S.A.
			  
             Prepared using the Tamkin Foundation Computer Network
                              MPC at CFA.HARVARD.EDU
            URL https://www.minorplanetcenter.net/    ISSN 1523-6714
                                    2023 VT6                                    
Observations:
     K23V06T* C2023 11 09.40308304 48 26.723+32 26 09.89         20.97GVEV197V00
     K23V06T  C2023 11 09.40858304 48 26.888+32 25 57.83         20.66GVEV197V00
     K23V06T  C2023 11 09.41408804 48 27.072+32 25 45.88         20.91GVEV197V00
     K23V06T  C2023 11 09.41958904 48 27.241+32 25 34.03         21.11GVEV197V00
     K23V06T KC2023 11 10.26953 04 49 03.66 +31 54 32.8                VEV197291
     K23V06T KC2023 11 10.27465 04 49 03.80 +31 54 21.6                VEV197291
     K23V06T KC2023 11 10.27977 04 49 03.95 +31 54 10.6          21.1 RVEV197291
     K23V06T KC2023 11 11.27393204 49 41.15 +31 16 49.9          21.6 GVEV197H21
     K23V06T KC2023 11 11.27822604 49 41.27 +31 16 39.7          21.0 GVEV197H21
     K23V06T  C2023 11 11.38637804 49 46.091+31 12 37.69         20.67wXEV197F52
     K23V06T  C2023 11 11.39821404 49 46.411+31 12 11.15         20.52wXEV197F52
     K23V06T  C2023 11 11.41005904 49 46.731+31 11 44.40         20.84wXEV197F52
Observer details:
291 LPL/Spacewatch II.  Observer T. H. Bressi.  1.8-m f/2.7 reflector + CCD.
F52 Pan-STARRS 2, Haleakala.  Observers J. Bulger, T. Lowe, P. Minguez, A.
    Schultz, I. Smith.  Measurers K. Chambers, T. de Boer, J. Fairlamb, H.
    Gao, M. Huber, C.-C. Lin, E. Magnier, Y. Ramanjooloo, R. Wainscoat, R.
    Weryk.  1.8-m Ritchey-Chretien + CCD.
H21 Astronomical Research Observatory, Westfield.  Observer R. Holmes.
    Measurers T. Linder, R. Holmes, L. Horn.  0.81-m f/4.0 astrograph + CCD.
V00 Kitt Peak-Bok.  Observer K. W. Wierzchos.  Measurers M. J. Brucker, C. E.
    Woodward, D. Fay, J. B. Fazekas, D. C. Fuls, A. R. Gibbs, H. Groeller, J.
    K. Hogan, R. A. Kowalski, S. M. Larson, C. Lejoly, G. J. Leonard, R. A.
    Mastaler, R. S. McMillan, D. Rankin, R. L. Seaman, A. Serrano, F. C.
    Shelly, K. W. Wierzchos.  2.25-m reflector + 4x4K mosaic CCD.
Orbital elements:
2023 VT6                                                 Earth MOID = 0.3050 AU
Epoch 2023 Sept. 13.0 TT = JDT 2460200.5                MPC                     
M 327.34129              (2000.0)            P               Q                  
n   0.38564297     Peri.  190.43215     +0.27907059     -0.93174870             
a   1.8693004      Node   243.69366     +0.89864330     +0.33867067             
e   0.3101922      Incl.   15.01895     +0.33846687     -0.13094480             
P   2.56           H   21.76          G   0.15           U   9                  
Residuals in seconds of arc
231109 V00  0.1+  0.1+    231110 291  0.7+  0.1-    231111 H21  0.0   0.2-
231109 V00  0.1-  0.1-    231110 291  0.4+  0.2-    231111 F52  0.1-  0.0
231109 V00  0.0   0.1-    231110 291  0.3+  0.0     231111 F52  0.1-  0.0
231109 V00  0.1-  0.1+    231111 H21  0.0   0.2+    231111 F52  0.0   0.0
Ephemeris:
2023 VT6                 a,e,i = 1.87, 0.31, 15                  q = 1.2895
Date    TT    R. A. (2000) Decl.     Delta      r    Elong.  Phase     V
2023 10 12    04 08 01.7 +42 02 16   0.5134  1.3697   126.9    35.6    22.5
...
2023 10 27    04 34 06.8 +38 42 50   0.4191  1.3336   137.5    30.2    21.8
...
2023 11 04    04 43 49.7 +35 23 05   0.3778  1.3183   144.6    25.8    21.4
...
2023 11 10    04 48 51.7 +32 04 32   0.3519  1.3088   150.7    21.7    21.1
2023 11 11    04 49 30.7 +31 27 19   0.3481  1.3074   151.8    21.0    21.1
2023 11 12    04 50 06.5 +30 48 57   0.3444  1.3061   152.9    20.2    21.0
...
2023 11 18    04 52 38.8 +26 35 54   0.3256  1.2990   159.7    15.3    20.7
...
2023 11 26    04 53 44.8 +20 10 24   0.3104  1.2926   168.4     8.8    20.4
...
2023 12 11    04 52 17.3 +07 46 34   0.3141  1.2900   164.3    11.9    20.5
A. U. Tomatic                (C) Copyright 2023 MPC           M.P.E.C. 2023-V197
    
    
More information about the Iaude
mailing list